User: anonymous   Login
Location: Les Jeannots
(43.2262°N, 5.5774°E)
Time: 07:19:42
(UTC+00:00)
Language:

Terra - Orbit

View from above orbital plane
View from above orbital plane
View from above satellite
View from above satellite

Ground track
Ground track

The orbit data is extracted from the following two-line orbital elements,

1 25994U 99068A   20273.82278533 +.00000000 +00000-0 +10065-4 0  9999
2 25994 098.2057 346.6173 0001410 098.8572 261.2777 14.57112014105517
Epoch (UTC): 29 September 2020 19:44:48
Eccentricity: 0.0001410
inclination: 98.2057°
perigee height: 701 km
apogee height: 703 km
right ascension of ascending node: 346.6173°
argument of perigee: 98.8572°
revolutions per day: 14.57112014
mean anomaly at epoch: 261.2777°
orbit number at epoch: 10551

The dashed part of the orbit path shows where the satellite is in the earth's shadow,  

DLR